Oakland, MD

4:21 AM EDT on October 19, 2019 (GMT -0400)
Oakland

Weather History for K2G4 - September, 2019

Change the Weather History Date:

Thursday, September 19, 2019

  Actual Average (KMGW) Record (KMGW)
Temperature  
Mean Temperature 55 °F -  
Max Temperature 66 °F 74 °F 94 °F (1895)
Min Temperature 44 °F 55 °F 32 °F (1929)
Degree Days  
Heating Degree Days 10    
Growing Degree Days 5 (Base 50)    
Moisture  
Dew Point 44 °F    
Average Humidity 70    
Maximum Humidity 100    
Minimum Humidity 46    
Precipitation  
Precipitation 0.00 in - - ()
Sea Level Pressure  
Sea Level Pressure 30.29 in    
Wind  
Wind Speed 10 mph ()    
Max Wind Speed 15 mph    
Max Gust Speed 23 mph    
Visibility 10.0 miles    
Events      
Averages and records for this station are not official NWS values.
T = Trace of Precipitation, MM = Missing Value Source: Averaged Metar Reports

Daily Weather History Graph

Daily Weather History Graph

Search for Another Location

Airport or City:

Astronomy

Sep. 19, 2019 Rise Set
Actual Time 7:01 AM EDT 7:19 PM EDT
Civil Twilight 6:35 AM EDT 7:46 PM EDT
Nautical Twilight 6:03 AM EDT 8:18 PM EDT
Astronomical Twilight 5:31 AM EDT 8:50 PM EDT
Moon 10:28 PM EDT 12:02 PM EDT
Length of Visible Light 13h 11m
Length of Day
12h 17m
Waning Gibbous, 74% of the Moon is Illuminated
Sep 19
Waning Gibbous
Sep 21
Last Quarter
Sep 28
New
Oct 5
First Quarter
Oct 13
Full

Hourly Weather History & Observations

Time (EDT) Temp. Windchill Dew Point Humidity Pressure Visibility Wind Dir Wind Speed Gust Speed Precip Events Conditions
12:00 AM 51.8 °F - 41.0 °F 67% 30.27 in 10.0 mi SE 10.4 mph - N/A   Clear
12:20 AM 51.8 °F - 41.0 °F 67% 30.27 in 10.0 mi SE 9.2 mph - N/A   Clear
12:40 AM 51.8 °F - 41.0 °F 67% 30.26 in 10.0 mi SE 11.5 mph - N/A   Clear
1:00 AM 51.8 °F - 41.0 °F 67% 30.26 in 10.0 mi ESE 12.7 mph 18.4 mph N/A   Clear
1:20 AM 51.8 °F - 41.0 °F 67% 30.26 in 10.0 mi ESE 13.8 mph 19.6 mph N/A   Clear
1:40 AM 51.8 °F - 41.0 °F 67% 30.26 in 10.0 mi ESE 15.0 mph 21.9 mph N/A   Clear
2:00 AM 50.0 °F - 41.0 °F 71% 30.26 in 10.0 mi SE 13.8 mph 18.4 mph N/A   Clear
2:20 AM 50.0 °F - 41.0 °F 71% 30.26 in 10.0 mi SE 12.7 mph 19.6 mph N/A   Clear
2:40 AM 50.0 °F - 41.0 °F 71% 30.27 in 10.0 mi SE 9.2 mph 17.3 mph N/A   Clear
3:00 AM 50.0 °F - 41.0 °F 71% 30.27 in 10.0 mi SE 10.4 mph - N/A   Clear
3:20 AM 50.0 °F - 42.8 °F 76% 30.27 in 10.0 mi SE 10.4 mph - N/A   Clear
3:40 AM 48.2 °F - 42.8 °F 82% 30.26 in 10.0 mi SE 11.5 mph - N/A   Clear
4:00 AM 48.2 °F - 42.8 °F 82% 30.27 in 10.0 mi SE 11.5 mph 16.1 mph N/A   Clear
4:20 AM 48.2 °F - 42.8 °F 82% 30.27 in 10.0 mi SE 9.2 mph 16.1 mph N/A   Clear
4:40 AM 46.4 °F 41.5 °F 42.8 °F 87% 30.27 in 10.0 mi SE 10.4 mph - N/A   Clear
5:00 AM 48.2 °F - 42.8 °F 82% 30.26 in 10.0 mi SE 10.4 mph - N/A   Clear
5:20 AM 46.4 °F 41.1 °F 42.8 °F 87% 30.26 in 10.0 mi SE 11.5 mph - N/A   Clear
5:40 AM 46.4 °F 41.5 °F 42.8 °F 87% 30.27 in 10.0 mi SSE 10.4 mph - N/A   Clear
6:00 AM 46.4 °F 41.5 °F 44.6 °F 93% 30.27 in 10.0 mi SE 10.4 mph - N/A   Clear
6:20 AM 46.4 °F 41.5 °F 44.6 °F 93% 30.27 in 10.0 mi SE 10.4 mph 17.3 mph N/A   Clear
6:40 AM 46.4 °F 41.9 °F 42.8 °F 87% 30.28 in 10.0 mi SE 9.2 mph 16.1 mph N/A   Clear
7:20 AM 44.6 °F 38.8 °F 44.6 °F 100% 30.28 in 10.0 mi SE 11.5 mph 17.3 mph N/A   Clear
7:40 AM 44.6 °F 40.2 °F 44.6 °F 100% 30.29 in 10.0 mi SE 8.1 mph 17.3 mph N/A   Clear
8:00 AM 46.4 °F 41.5 °F 46.4 °F 100% 30.30 in 10.0 mi SE 10.4 mph - N/A   Clear
8:20 AM 46.4 °F 41.5 °F 46.4 °F 100% 30.30 in 10.0 mi SSE 10.4 mph - N/A   Scattered Clouds
8:40 AM 48.2 °F - 46.4 °F 93% 30.31 in 10.0 mi SSE 8.1 mph - N/A   Scattered Clouds
9:00 AM 50.0 °F - 46.4 °F 87% 30.31 in 10.0 mi SE 9.2 mph - N/A   Mostly Cloudy
9:20 AM 50.0 °F - 48.2 °F 94% 30.32 in 10.0 mi SE 9.2 mph - N/A   Mostly Cloudy
9:40 AM 51.8 °F - 48.2 °F 88% 30.31 in 10.0 mi SE 10.4 mph 16.1 mph N/A   Scattered Clouds
10:00 AM 53.6 °F - 48.2 °F 82% 30.32 in 10.0 mi SSE 9.2 mph - N/A   Clear
10:20 AM 55.4 °F - 46.4 °F 72% 30.32 in 10.0 mi SE 11.5 mph 17.3 mph N/A   Scattered Clouds
10:40 AM 57.2 °F - 46.4 °F 67% 30.31 in 10.0 mi SSE 10.4 mph 21.9 mph N/A   Scattered Clouds
11:00 AM 57.2 °F - 46.4 °F 67% 30.32 in 10.0 mi SSE 11.5 mph 23.0 mph N/A   Clear
11:20 AM 59.0 °F - 46.4 °F 63% 30.32 in 10.0 mi South 8.1 mph 19.6 mph N/A   Clear
11:40 AM 59.0 °F - 44.6 °F 59% 30.32 in 10.0 mi SE 11.5 mph 20.7 mph N/A   Clear
12:00 PM 60.8 °F - 46.4 °F 59% 30.32 in 10.0 mi SSE 9.2 mph 16.1 mph N/A   Clear
12:20 PM 60.8 °F - 46.4 °F 59% 30.32 in 10.0 mi SSE 8.1 mph - N/A   Clear
12:40 PM 60.8 °F - 46.4 °F 59% 30.32 in 10.0 mi SE 12.7 mph 19.6 mph N/A   Clear
1:00 PM 60.8 °F - 46.4 °F 59% 30.32 in 10.0 mi SSE 10.4 mph 19.6 mph N/A   Clear
1:20 PM 62.6 °F - 46.4 °F 55% 30.32 in 10.0 mi SE 10.4 mph 19.6 mph N/A   Clear
1:40 PM 62.6 °F - 44.6 °F 52% 30.31 in 10.0 mi SSE 10.4 mph 18.4 mph N/A   Clear
2:00 PM 62.6 °F - 44.6 °F 52% 30.31 in 10.0 mi SSE 13.8 mph 18.4 mph N/A   Clear
2:20 PM 64.4 °F - 46.4 °F 52% 30.32 in 10.0 mi SSE 10.4 mph 16.1 mph N/A   Clear
2:40 PM 64.4 °F - 44.6 °F 49% 30.31 in 10.0 mi ESE 9.2 mph 18.4 mph N/A   Clear
3:00 PM 66.2 °F - 44.6 °F 46% 30.30 in 10.0 mi South 6.9 mph - N/A   Clear
3:20 PM 64.4 °F - 46.4 °F 52% 30.30 in 10.0 mi South 9.2 mph - N/A   Clear
3:40 PM 64.4 °F - 46.4 °F 52% 30.30 in 10.0 mi SE 9.2 mph - N/A   Clear
4:00 PM 66.2 °F - 44.6 °F 46% 30.29 in 10.0 mi SSE 8.1 mph - N/A   Clear
4:20 PM 64.4 °F - 44.6 °F 49% 30.28 in 10.0 mi SE 6.9 mph - N/A   Clear
4:40 PM 64.4 °F - 44.6 °F 49% 30.28 in 10.0 mi SE 6.9 mph - N/A   Clear
5:00 PM 64.4 °F - 44.6 °F 49% 30.28 in 10.0 mi SSE 6.9 mph - N/A   Clear
5:20 PM 64.4 °F - 44.6 °F 49% 30.29 in 10.0 mi ESE 8.1 mph - N/A   Clear
5:40 PM 64.4 °F - 44.6 °F 49% 30.29 in 10.0 mi ESE 9.2 mph - N/A   Clear
6:00 PM 62.6 °F - 44.6 °F 52% 30.29 in 10.0 mi SE 9.2 mph - N/A   Clear
6:20 PM 62.6 °F - 44.6 °F 52% 30.29 in 10.0 mi ESE 9.2 mph - N/A   Clear
6:40 PM 60.8 °F - 44.6 °F 55% 30.29 in 10.0 mi ESE 8.1 mph - N/A   Clear
7:00 PM 59.0 °F - 44.6 °F 59% 30.29 in 10.0 mi ESE 9.2 mph - N/A   Clear
7:20 PM 57.2 °F - 44.6 °F 63% 30.28 in 10.0 mi SE 8.1 mph - N/A   Clear
7:40 PM 55.4 °F - 44.6 °F 67% 30.28 in 10.0 mi SE 8.1 mph - N/A   Clear
8:00 PM 55.4 °F - 44.6 °F 67% 30.28 in 10.0 mi ESE 10.4 mph - N/A   Clear
8:20 PM 55.4 °F - 44.6 °F 67% 30.28 in 10.0 mi SE 8.1 mph - N/A   Clear
8:40 PM 53.6 °F - 44.6 °F 72% 30.29 in 10.0 mi ESE 9.2 mph - N/A   Clear
9:00 PM 53.6 °F - 44.6 °F 72% 30.29 in 10.0 mi SE 8.1 mph - N/A   Clear
9:20 PM 51.8 °F - 44.6 °F 76% 30.29 in 10.0 mi SE 9.2 mph - N/A   Clear
9:40 PM 51.8 °F - 42.8 °F 71% 30.29 in 10.0 mi ESE 9.2 mph - N/A   Clear
10:00 PM 51.8 °F - 42.8 °F 71% 30.29 in 10.0 mi SE 6.9 mph - N/A   Clear
10:20 PM 50.0 °F - 42.8 °F 76% 30.29 in 10.0 mi SE 6.9 mph - N/A   Clear
10:40 PM 50.0 °F - 42.8 °F 76% 30.29 in 10.0 mi SE 6.9 mph - N/A   Clear
11:00 PM 50.0 °F - 42.8 °F 76% 30.29 in 10.0 mi SE 8.1 mph - N/A   Clear
11:20 PM 50.0 °F - 42.8 °F 76% 30.29 in 10.0 mi SE 10.4 mph - N/A   Clear
11:40 PM 50.0 °F - 44.6 °F 82% 30.28 in 10.0 mi SE 10.4 mph - N/A   Clear